This is the latest recevied weather packets stored in our database for station/object KD0RIH. If no packets are shown the sender has not sent any weather packets the latest 10 day(s).
| Time | Temp. | Humidity | Pressure | Rain* | Wind** | Luminosity | Snow |
|---|---|---|---|---|---|---|---|
| 1777852951 | 26.11° C | 32% | 1008.4 hPa | 0 mm | - | 82 W/m² | - |
| 1777852649 | 26.67° C | 30% | 1008.6 hPa | 0 mm | - | 84 W/m² | - |
| 1777852346 | 27.22° C | 30% | 1008.5 hPa | 0 mm | - | 104 W/m² | - |
| 1777852044 | 26.67° C | 31% | 1008.5 hPa | 0 mm | - | 108 W/m² | - |
| 1777851742 | 26.67° C | 30% | 1008.6 hPa | 0 mm | - | 108 W/m² | - |
| 1777851439 | 26.67° C | 30% | 1008.7 hPa | 0 mm | - | 124 W/m² | - |
| 1777851134 | 26.67° C | 30% | 1008.6 hPa | 0 mm | - | 135 W/m² | - |
| 1777850831 | 26.67° C | 30% | 1008.6 hPa | 0 mm | - | 147 W/m² | - |
| 1777850528 | 27.22° C | 30% | 1008.7 hPa | 0 mm | - | 141 W/m² | - |
| 1777850227 | 27.22° C | 29% | 1008.7 hPa | 0 mm | - | 146 W/m² | - |
| 1777849923 | 27.22° C | 29% | 1008.7 hPa | 0 mm | - | 241 W/m² | - |
| 1777849619 | 27.78° C | 28% | 1008.8 hPa | 0 mm | - | 125 W/m² | - |
| 1777849316 | 28.33° C | 28% | 1008.7 hPa | 0 mm | - | 241 W/m² | - |
| 1777849014 | 28.33° C | 27% | 1008.9 hPa | 0 mm | - | 231 W/m² | - |
| 1777848714 | 28.89° C | 27% | 1008.8 hPa | 0 mm | - | 274 W/m² | - |
| 1777848411 | 28.89° C | 27% | 1008.9 hPa | 0 mm | - | 248 W/m² | - |
| 1777848109 | 29.44° C | 27% | 1008.7 hPa | 0 mm | - | 374 W/m² | - |
| 1777847807 | 28.89° C | 28% | 1008.8 hPa | 0 mm | - | 294 W/m² | - |
| 1777847503 | 28.89° C | 27% | 1008.9 hPa | 0 mm | - | 312 W/m² | - |
| 1777847200 | 28.89° C | 26% | 1008.9 hPa | 0 mm | - | 452 W/m² | - |
| 1777846898 | 28.33° C | 28% | 1008.7 hPa | 0 mm | - | 360 W/m² | - |
| 1777846596 | 28.89° C | 30% | 1008.7 hPa | 0 mm | - | 210 W/m² | - |
| 1777846293 | 29.44° C | 26% | 1008.8 hPa | 0 mm | - | 215 W/m² | - |
| 1777845990 | 28.89° C | 28% | 1008.8 hPa | 0 mm | - | 538 W/m² | - |
| 1777845686 | 28.33° C | 29% | 1008.9 hPa | 0 mm | - | 402 W/m² | - |
* Rain latest hour (hover to see other rain measurements)
** Current wind speed in m/s (hover to see current wind gust speed)